TimeEST,TemperatureF,Dew PointF,Humidity,Sea Level PressureIn,VisibilityMPH,Wind Direction,Wind SpeedMPH,Gust SpeedMPH,PrecipitationIn,Events,Conditions,WindDirDegrees,DateUTC
12:05 AM,15.8,10.4,79,30.29,3.0,West,5.8,-,0.00,Snow,Light Snow,260,2014-01-01 05:05:00
12:53 AM,15.1,10.9,84,30.34,6.0,West,5.8,-,0.00,Snow,Light Snow,270,2014-01-01 05:53:00
1:53 AM,16.0,10.9,81,30.33,6.0,WNW,3.5,-,0.00,Snow,Light Snow,300,2014-01-01 06:53:00
2:53 AM,16.0,10.9,81,30.32,8.0,North,5.8,-,0.00,Snow,Light Snow,10,2014-01-01 07:53:00
3:53 AM,16.0,10.9,81,30.34,4.0,NE,5.8,-,0.00,Snow,Light Snow,40,2014-01-01 08:53:00
4:11 AM,15.8,10.4,79,30.29,2.5,NE,10.4,-,0.00,Snow,Light Snow,40,2014-01-01 09:11:00
4:41 AM,14.0,8.6,79,30.29,3.0,NNE,6.9,-,0.00,Snow,Light Snow,30,2014-01-01 09:41:00
4:53 AM,14.0,8.1,77,30.34,6.0,NE,5.8,-,0.00,Snow,Light Snow,50,2014-01-01 09:53:00
5:53 AM,14.0,8.1,77,30.34,3.0,ENE,5.8,-,0.00,Snow,Light Snow,60,2014-01-01 10:53:00
6:26 AM,14.0,8.6,79,30.30,2.5,NE,5.8,-,0.00,Snow,Light Snow,40,2014-01-01 11:26:00
6:34 AM,14.0,8.6,79,30.31,2.0,NE,4.6,-,0.00,Snow,Light Snow,40,2014-01-01 11:34:00
6:41 AM,14.0,8.6,79,30.31,1.5,NE,5.8,-,0.01,Snow,Light Snow,50,2014-01-01 11:41:00
6:53 AM,14.0,9.0,80,30.36,1.8,NE,4.6,-,0.01,Snow,Light Snow,50,2014-01-01 11:53:00
7:25 AM,14.0,8.6,79,30.32,2.5,NE,6.9,-,0.00,Snow,Light Snow,40,2014-01-01 12:25:00
7:32 AM,14.0,8.6,79,30.31,3.0,NNE,6.9,-,0.00,Snow,Light Snow,30,2014-01-01 12:32:00
7:53 AM,14.0,8.1,77,30.36,5.0,NE,6.9,-,0.00,Snow,Light Snow,50,2014-01-01 12:53:00
8:06 AM,14.0,8.6,79,30.32,2.5,NE,8.1,-,0.00,Snow,Light Snow,40,2014-01-01 13:06:00
8:11 AM,14.0,8.6,79,30.32,1.2,NE,8.1,-,0.00,Snow,Light Snow,40,2014-01-01 13:11:00
8:23 AM,14.0,8.6,79,30.33,0.5,NE,6.9,-,0.01,Snow,Snow,50,2014-01-01 13:23:00
8:53 AM,12.9,9.0,84,30.38,1.2,NE,8.1,-,0.01,Snow,Light Snow,50,2014-01-01 13:53:00
9:26 AM,12.2,8.6,85,30.33,1.5,NE,10.4,-,0.00,Snow,Light Snow,40,2014-01-01 14:26:00
9:37 AM,12.2,8.6,85,30.34,2.0,NE,8.1,-,0.00,Snow,Light Snow,40,2014-01-01 14:37:00
9:47 AM,12.2,8.6,85,30.34,1.8,NE,8.1,-,0.00,Snow,Light Snow,50,2014-01-01 14:47:00
9:53 AM,12.9,8.1,81,30.39,1.8,NE,6.9,-,0.00,Snow,Light Snow,50,2014-01-01 14:53:00
10:05 AM,12.2,8.6,85,30.34,1.5,ENE,10.4,-,0.00,Snow,Light Snow,60,2014-01-01 15:05:00
10:22 AM,12.2,8.6,85,30.34,1.2,ENE,8.1,-,0.00,Snow,Light Snow,60,2014-01-01 15:22:00
10:53 AM,12.9,7.0,77,30.40,1.5,ENE,6.9,-,0.00,Snow,Light Snow,60,2014-01-01 15:53:00
11:05 AM,12.2,6.8,79,30.35,1.2,NE,9.2,-,0.00,Snow,Light Snow,50,2014-01-01 16:05:00
11:22 AM,12.2,8.6,85,30.34,0.8,NE,6.9,-,0.00,Snow,Light Snow,50,2014-01-01 16:22:00
11:34 AM,12.2,8.6,85,30.34,0.5,NE,8.1,-,0.01,Snow,Snow,50,2014-01-01 16:34:00
11:53 AM,12.9,7.0,77,30.38,0.8,NE,10.4,-,0.01,Snow,Light Snow,40,2014-01-01 16:53:00
12:53 PM,12.0,7.0,80,30.35,0.8,NE,10.4,-,0.01,Snow,Light Snow,50,2014-01-01 17:53:00
1:06 PM,12.2,6.8,79,30.29,0.8,NE,10.4,-,0.00,Snow,Light Snow,40,2014-01-01 18:06:00
1:13 PM,12.2,6.8,79,30.29,1.0,NE,12.7,-,0.00,Snow,Light Snow,40,2014-01-01 18:13:00
1:53 PM,12.9,7.0,77,30.32,1.0,NE,12.7,-,0.00,Snow,Light Snow,50,2014-01-01 18:53:00
2:37 PM,12.2,8.6,85,30.26,1.5,NNE,8.1,-,0.00,Snow,Light Snow,30,2014-01-01 19:37:00
2:53 PM,12.9,8.1,81,30.31,1.2,NE,9.2,-,0.00,Snow,Light Snow,50,2014-01-01 19:53:00
3:02 PM,12.2,8.6,85,30.26,1.8,NE,11.5,-,0.00,Snow,Light Snow,50,2014-01-01 20:02:00
3:18 PM,14.0,8.6,79,30.25,1.0,NE,9.2,-,0.00,Snow,Light Snow,50,2014-01-01 20:18:00
3:53 PM,12.9,8.1,81,30.30,1.2,NNE,12.7,-,0.00,Snow,Light Snow,30,2014-01-01 20:53:00
4:20 PM,12.2,8.6,85,30.26,1.5,NE,11.5,-,0.00,Snow,Light Snow,40,2014-01-01 21:20:00
4:27 PM,12.2,8.6,85,30.26,1.0,NE,10.4,-,0.00,Snow,Light Snow,40,2014-01-01 21:27:00
4:53 PM,12.9,9.0,84,30.30,1.0,NE,9.2,-,0.00,Snow,Light Snow,40,2014-01-01 21:53:00
5:23 PM,12.2,8.6,85,30.25,1.5,NE,12.7,-,0.00,Snow,Light Snow,50,2014-01-01 22:23:00
5:33 PM,12.2,8.6,85,30.25,2.5,NE,10.4,-,0.00,Snow,Light Snow,50,2014-01-01 22:33:00
5:46 PM,12.2,8.6,85,30.26,2.5,NE,8.1,-,0.00,Snow,Light Snow,50,2014-01-01 22:46:00
5:53 PM,12.9,8.1,81,30.31,2.5,NE,6.9,-,0.00,Snow,Light Snow,40,2014-01-01 22:53:00
6:28 PM,12.2,8.6,85,30.25,3.0,NE,6.9,-,0.01,Snow,Light Snow,40,2014-01-01 23:28:00
6:44 PM,12.2,8.6,85,30.25,2.5,NE,9.2,-,0.01,Snow,Light Snow,50,2014-01-01 23:44:00
6:53 PM,12.9,8.1,81,30.30,2.5,NE,9.2,-,0.01,Snow,Light Snow,50,2014-01-01 23:53:00
7:15 PM,12.2,8.6,85,30.25,1.8,NE,9.2,-,0.00,Snow,Light Snow,50,2014-01-02 00:15:00
7:53 PM,12.9,9.0,84,30.29,1.8,NE,8.1,-,0.00,Snow,Light Snow,50,2014-01-02 00:53:00
8:27 PM,14.0,8.6,79,30.24,2.5,NE,9.2,-,0.00,Snow,Light Snow,50,2014-01-02 01:27:00
8:53 PM,14.0,10.0,84,30.27,2.0,NE,11.5,-,0.00,Snow,Light Snow,50,2014-01-02 01:53:00
9:02 PM,14.0,10.4,86,30.22,3.0,NE,8.1,-,0.00,Snow,Light Snow,40,2014-01-02 02:02:00
9:17 PM,14.0,10.4,86,30.22,2.5,NE,10.4,-,0.00,Snow,Light Snow,40,2014-01-02 02:17:00
9:26 PM,14.0,10.4,86,30.21,2.5,NE,8.1,-,0.00,Snow,Light Snow,40,2014-01-02 02:26:00
9:48 PM,14.0,10.4,86,30.21,2.5,NE,11.5,-,0.00,Snow,Light Snow,40,2014-01-02 02:48:00
9:53 PM,14.0,9.0,80,30.26,3.0,NE,11.5,-,0.00,Snow,Light Snow,40,2014-01-02 02:53:00
10:35 PM,14.0,8.6,79,30.20,2.5,NE,12.7,-,0.00,Snow,Light Snow,40,2014-01-02 03:35:00
10:46 PM,14.0,8.6,79,30.20,2.0,NE,11.5,-,0.00,Snow,Light Snow,40,2014-01-02 03:46:00
10:53 PM,14.0,10.0,84,30.25,2.0,NE,9.2,-,0.00,Snow,Light Snow,40,2014-01-02 03:53:00
11:07 PM,14.0,10.4,86,30.20,3.0,NE,10.4,-,0.00,Snow,Light Snow,40,2014-01-02 04:07:00
11:10 PM,14.0,10.4,86,30.20,2.5,NE,10.4,-,0.00,Snow,Light Snow,40,2014-01-02 04:10:00
11:21 PM,14.0,10.4,86,30.19,1.5,NE,11.5,-,0.00,Snow,Light Snow,40,2014-01-02 04:21:00
11:46 PM,15.8,10.4,79,30.18,1.2,ENE,13.8,-,0.01,Snow,Light Snow,60,2014-01-02 04:46:00
11:53 PM,15.1,10.9,84,30.22,1.8,NE,13.8,-,0.01,Snow,Light Snow,50,2014-01-02 04:53:00